GFSNIL_prec_radar_132.txt.gz
Reflectivity
-20 -20 -20 -20 -20 -20 -20 -20 -20 -20 -20 -20 -20 -20 -20 -20 -20 -20 -20 -20 -20 -20
-20 -20 -20 -20 -20 -20 -20 -20 -20 -20 -20 -20 -20 -20 -20 -20 -20 -20 -20 -20 -20 -20
-20 -20 -20 -20 -20 -20 -20 -20 -20 -20 -20 -20 -20 -20 -20 -20 -20 -20 -20 -20 -20 -20
-20 -20 -20 -20 -20 -20 -20 -20 -20 -20 -20 -13 -20 -20 -20 -20 -20 -20 -20 -20 -20 -20
-20 -20 -20 -20 -20 -20 -20 -20 -20 31 -20 -20 -20 -20 -20 -20 -20 -20 -20 -20 -20 -20
-20 -20 -20 -20 -20 -20 -20 -20 20 -20 -20 -20 -20 -20 -20 -20 -20 -20 -20 -20 -17 -20
-20 -20 -20 -20 -20 -20 -20 -20 -20 -20 -20 -20 -20 -20 -20 -20 -20 16 -13 -20 -20 -20
22 -20 -20 -20 -20 -20 -20 -20 -20 -20 -20 23 -20 -20 -20 -20 -20 -20 5 -20 -20 -20
-14 30 9 -19 -20 -20 -20 -20 -14 -20 6 -19 -20 -20 -20 -20 -20 -20 -20 -20 -20 -20
29 15 -10 29 29 15 -20 -20 -20 -20 -20 -20 -20 -11 -14 -20 12 -20 -20 -20 -20 -20
38 -2 -18 27 4 -10 6 -20 28 -20 -20 -20 -20 4 -20 -20 -17 -20 -20 -20 -20 -20
33 34 25 27 15 -20 -11 -20 -20 -20 -20 -12 23 32 5 -20 -20 20 -20 -20 -20 -20
23 34 31 28 26 29 -20 -20 -20 -16 -18 25 -20 29 -20 -20 -20 -20 -5 6 12 21
31 45 41 27 30 29 28 21 17 -8 21 25 8 -5 8 4 5 8 3 14 -11 -20

GFSNIL_prec_radar_138.txt.gz
Reflectivity
-20 -20 -20 -20 -20 -20 -20 -20 -20 -20 -20 -20 -20 -20 -20 -20 -20 -20 -20 -20 -20 -20
-20 -20 -20 -20 -20 -20 -20 -20 -20 -20 -20 -20 -20 -20 -20 -20 -20 -20 -20 -20 -20 -20
-20 -20 -20 -20 -20 -20 -20 -20 -20 -20 -20 -20 -20 -20 -20 -20 -20 -20 -20 -20 -20 -20
-20 -20 -20 -20 -20 -20 -20 -20 -20 -20 -20 -20 -20 -20 -20 -20 -20 -20 -20 -20 -20 -20
-20 -20 -20 -20 -20 -20 -20 -20 -20 -20 -20 -20 -20 -20 -20 -20 -20 -20 -20 -20 -20 -20
-16 -20 -20 -20 -20 -20 -20 -20 -20 -20 -20 -20 -20 -20 -20 -20 -20 -20 -20 -20 -20 -20
-13 -20 -20 -20 -20 -20 -20 -20 -20 -20 -20 -20 -20 -20 -20 -20 -20 -20 -20 -20 -20 -8
32 22 -7 -20 -20 -20 -20 -20 -20 -20 19 -13 -20 -20 -20 -20 -20 -20 -20 -20 -16 37
-16 -3 22 -7 -20 -20 -20 -20 -20 -20 -4 -20 -20 -20 -20 -20 -20 -20 -20 -20 11 23
-19 -12 -14 -5 19 -10 -20 -20 -20 -20 21 -11 -20 -20 -20 -6 -2 9 -20 -20 -20 -20
13 -6 -20 21 -19 -20 -20 -20 -20 -20 -12 -16 -20 -12 -1 25 2 15 -20 -20 -20 -6
9 10 -4 19 31 2 -8 -19 24 -20 -20 -20 -20 -20 23 27 21 -20 -20 -20 -20 -4
-2 -1 4 -19 -2 14 35 16 8 26 -20 -20 19 -20 20 21 16 18 -20 20 13 19
-0 -20 -16 16 21 17 23 20 20 24 22 -9 19 3 3 -15 -20 -4 -18 -17 -20 -14

GFSNIL_prec_radar_141.txt.gz
Reflectivity
-20 -20 -20 -20 -20 -20 -20 -20 -20 -20 -20 -20 -20 -20 -20 -14 -20 -20 -20 24 -20 -20
-20 -20 -20 -20 -20 -20 -20 -20 -20 -20 -20 -20 -20 -20 -20 -20 -20 8 -20 -20 -20 -20
-20 -20 -20 -20 -20 -20 -20 -20 -20 -20 -20 -20 8 -20 -20 -20 -20 -2 -20 -20 -20 -20
-20 -20 -20 -20 -20 -20 -20 -20 -20 -20 -20 -20 -20 -15 -20 -20 -20 -20 -20 -20 8 -12
-20 -20 -20 -20 -20 -20 -20 -20 -20 -17 -20 -20 -20 -3 -20 -17 -20 -20 -20 -20 -20 -20
-19 -20 -20 -20 -20 -20 -20 -20 -20 -20 -20 -20 30 29 -14 -4 13 3 -20 -20 -20 -20
-20 -20 -20 -20 -20 -20 -20 -20 -20 -20 -20 -20 -20 -20 5 27 -20 -20 -20 -20 2 -20
-20 -20 -20 -20 -20 -20 -20 -20 -20 -20 -20 -20 -20 -5 -20 27 28 26 -20 -20 34 -12
-20 -20 -20 -20 -20 -20 -20 -20 -20 -20 -20 -20 -20 -20 -20 25 18 -0 -20 30 -8 -20
2 9 -7 -20 -20 -18 -20 -20 -20 -20 -20 -20 -20 -20 -20 -20 23 -14 30 16 -3 -20
-20 2 8 7 10 8 -13 -20 -20 -20 -20 -20 -20 -20 -20 -20 24 -16 -12 -1 22 -20
3 5 5 2 8 6 -8 -1 -20 -20 -6 15 -20 -20 -20 -12 -4 -2 -1 21 14 -20
-3 -2 -6 9 -5 7 21 16 20 3 -8 -1 -20 -9 -20 -18 -16 8 13 -20 15 -1
-9 -20 -14 -5 12 -4 9 -9 -10 -20 -8 24 4 -12 -0 -5 -1 24 11 20 17 0

GFSNIL_prec_radar_144.txt.gz
Reflectivity
-20 -20 -20 -20 -20 -20 -20 -20 -20 -20 -20 -20 -17 -14 -16 -20 -20 -20 -20 -20 -20 -20
-20 -20 -20 -20 -20 -20 -20 -20 -20 -20 -20 -20 -20 -20 3 -20 -20 -20 -20 -20 -20 -20
-20 -20 -20 -20 -20 -20 -20 -20 -20 -20 -20 -20 -20 -20 -20 -20 -20 -20 -20 -20 -20 -20
-20 -20 -20 -20 -20 -20 -20 -20 -20 -20 -20 -20 -6 10 -20 -20 -20 26 -0 -20 -20 -4
-20 -20 -20 -20 -20 -20 -20 -20 -20 -20 -20 -20 -20 -20 -19 -20 -20 -2 -5 -5 21 15
-20 -20 -20 -20 -20 -20 -20 -20 -20 -20 -20 -20 -20 -8 -20 -20 -20 -20 -20 -20 22 -8
-20 -3 -17 -20 -20 -20 -20 -20 -20 -20 -20 -20 26 -5 -20 -20 -15 -20 -20 20 -20 -20
-20 -20 -20 -20 -20 -18 -12 -20 -20 22 15 -20 -20 -20 -20 -20 -20 -5 17 24 22 -13
-20 -20 -18 2 -6 -4 -10 -20 -15 -20 21 7 -20 -20 -20 -20 -20 -20 -9 -20 23 14
2 1 0 7 5 3 -1 -2 5 -4 13 -20 -20 -20 -20 -20 -20 -20 -5 -4 4 14
-15 -11 -12 -4 12 14 8 10 10 -3 10 -14 -20 -20 -20 -20 -20 2 24 14 10 13
-20 -20 -20 -20 -20 -5 16 16 -12 2 22 4 -2 -20 9 -12 17 21 7 -2 -0 -16
-7 -18 -5 -1 -20 -19 5 13 31 19 23 27 24 -8 29 -20 17 3 -4 -4 -16 -18
3 1 1 -15 -7 -11 7 15 13 18 19 22 26 18 26 17 -4 -19 -7 -20 2 -20

GFSNIL_prec_radar_147.txt.gz
Reflectivity
-20 -20 -20 -20 -20 -20 -0 -9 9 18 -20 -20 -20 -20 -20 -20 -20 -20 -20 -20 -20 -20
-20 -20 -20 -20 -20 -20 -8 -20 -20 18 -18 -19 -20 -20 9 -20 -15 -20 -20 -20 -20 -19
-20 -20 -20 -20 -20 -20 -20 -1 -6 -20 -18 -19 -20 -20 -20 -20 -20 -20 -20 -20 -20 -14
-20 -20 -20 -20 -20 -20 -20 -20 -20 -20 -20 -20 -20 -20 5 -8 -8 -15 23 -20 -20 -15
-20 -20 -20 -20 -20 -10 -20 -20 -20 -20 -20 -20 -20 -20 23 -20 -20 -20 -20 -20 -20 -20
-20 -20 -20 -20 -20 -3 30 -20 -20 -11 -20 -20 11 21 24 -6 -20 -20 3 -10 17 -20
-20 -19 -20 -20 -20 -20 19 -1 5 12 21 6 -20 -20 -20 -20 24 7 -20 22 -20 12
-8 -20 -14 -13 -17 18 -0 -20 -20 -20 25 14 -20 -20 -7 -20 -20 25 -9 -20 -12 -4
25 -4 -19 -13 -5 -19 -20 -12 -19 -20 6 -20 -20 -20 -20 -20 -20 -19 -6 21 -19 1
-19 -11 -7 -20 30 28 2 25 -20 3 11 2 -20 -20 -20 -20 -20 -20 1 20 5 4
-12 -20 -20 -2 19 -1 -9 -20 -20 -20 -10 19 -20 -20 -20 -20 -20 -20 -20 1 -12 24
-20 -20 -20 -20 -20 -8 2 12 18 -20 -15 19 -20 -20 -20 -20 -20 -20 -20 -14 -20 7
-20 -20 -20 -20 -20 -20 -20 -14 -2 22 5 -19 -16 -16 9 -20 -20 17 -4 4 -20 -20
-14 -2 -5 -7 -7 -5 -5 -15 -20 5 14 -20 7 4 -20 25 23 26 0 -17 -13 -3